Temp
-10 -10 -10 -10 -11 -11 -11 -12 -11 -11 -12 -12 -11 -10 -10 -10 -10 -10 -10 -10 -10 -10 -10 -10 -10 -11 -10 -10 -10 -10 -10 -10 -11 -11 -11 -11 -11 -11 -11 -10 -11 -11 -11 -10 -10
-11 -10 -10 -10 -10 -11 -11 -11 -12 -12 -11 -12 -12 -11 -10 -10 -11 -11 -11 -11 -11 -11 -11 -11 -11 -11 -10 -10 -10 -10 -10 -10 -11 -11 -11 -11 -10 -10 -10 -11 -11 -12 -10 -10 -11
-10 -10 -10 -10 -10 -10 -11 -12 -12 -12 -12 -12 -12 -12 -11 -11 -11 -11 -11 -11 -11 -11 -12 -11 -11 -11 -11 -10 -10 -11 -10 -11 -11 -11 -11 -11 -11 -11 -11 -11 -12 -11 -11 -11 -11
-10 -10 -10 -10 -10 -10 -10 -11 -12 -12 -12 -13 -12 -12 -11 -11 -11 -11 -11 -11 -12 -12 -12 -12 -12 -12 -11 -11 -11 -11 -11 -11 -11 -11 -11 -10 -11 -10 -11 -12 -12 -11 -11 -12 -12
-11 -11 -11 -10 -10 -10 -10 -10 -11 -11 -12 -12 -12 -12 -12 -12 -11 -12 -11 -11 -11 -11 -12 -12 -12 -12 -12 -11 -11 -11 -11 -12 -11 -11 -10 -10 -10 -11 -11 -11 -12 -11 -12 -12 -12
-10 -10 -10 -10 -10 -10 -10 -10 -10 -11 -11 -12 -12 -12 -12 -10 -11 -12 -12 -11 -11 -12 -12 -12 -11 -12 -12 -11 -12 -11 -11 -11 -11 -10 -10 -11 -10 -9 -11 -11 -11 -11 -12 -12 -11
-10 -10 -10 -10 -10 -10 -10 -10 -11 -10 -11 -11 -12 -11 -10 -9 -11 -12 -12 -11 -11 -12 -12 -11 -11 -11 -11 -11 -11 -11 -11 -11 -11 -11 -10 -11 -10 -10 -11 -12 -11 -11 -11 -12 -12
-10 -10 -10 -10 -10 -10 -10 -11 -11 -11 -11 -11 -11 -11 -9 -10 -12 -11 -12 -11 -11 -10 -10 -11 -11 -11 -11 -11 -10 -10 -11 -11 -10 -11 -11 -12 -9 -11 -11 -12 -12 -11 -12 -12 -11
-10 -10 -10 -10 -10 -10 -10 -10 -10 -11 -11 -11 -10 -11 -9 -10 -11 -12 -11 -11 -10 -10 -10 -10 -10 -10 -10 -10 -9 -10 -9 -10 -10 -11 -11 -12 -11 -12 -11 -12 -12 -12 -12 -12 -12
-10 -10 -10 -10 -10 -10 -10 -11 -11 -10 -10 -10 -10 -10 -10 -10 -11 -11 -11 -10 -10 -10 -10 -10 -10 -10 -9 -9 -8 -9 -10 -10 -10 -11 -12 -12 -12 -12 -12 -12 -12 -12 -12 -12 -11
-10 -10 -10 -10 -10 -10 -11 -11 -11 -11 -10 -10 -10 -10 -10 -9 -10 -10 -10 -10 -10 -10 -9 -10 -10 -9 -9 -10 -10 -11 -11 -12 -12 -11 -11 -11 -12 -12 -12 -11 -11 -12 -13 -12 -11
-10 -10 -10 -10 -10 -11 -11 -11 -11 -10 -10 -10 -10 -9 -10 -10 -10 -10 -10 -10 -9 -9 -10 -10 -8 -9 -9 -10 -10 -11 -11 -11 -12 -12 -12 -12 -12 -12 -12 -10 -10 -11 -11 -11 -11
-10 -10 -10 -10 -10 -11 -11 -12 -12 -10 -10 -9 -9 -9 -10 -11 -10 -10 -10 -9 -9 -9 -10 -9 -9 -10 -10 -10 -10 -10 -10 -11 -12 -12 -12 -12 -11 -11 -12 -12 -13 -13 -11 -11 -11
-11 -10 -10 -10 -10 -11 -11 -12 -12 -11 -10 -9 -9 -9 -9 -9 -9 -10 -9 -10 -9 -8 -10 -10 -10 -10 -11 -11 -11 -10 -11 -12 -12 -12 -12 -12 -10 -12 -11 -12 -12 -13 -11 -11 -11
-15 -14 -13 -12 -11 -11 -11 -12 -12 -12 -12 -9 -9 -9 -10 -10 -10 -9 -10 -9 -9 -9 -10 -8 -9 -10 -10 -10 -11 -11 -12 -12 -12 -12 -12 -10 -10 -10 -12 -12 -12 -13 -12 -11 -11
-20 -19 -17 -16 -14 -13 -12 -12 -13 -13 -11 -10 -11 -9 -9 -9 -10 -10 -10 -10 -11 -10 -10 -9 -10 -10 -10 -12 -12 -13 -12 -12 -13 -13 -10 -10 -11 -10 -12 -12 -12 -12 -12 -11 -12
-22 -21 -21 -20 -20 -17 -15 -15 -14 -13 -10 -10 -12 -11 -10 -10 -10 -11 -10 -10 -10 -9 -9 -9 -10 -10 -11 -13 -12 -12 -13 -12 -12 -11 -9 -10 -10 -11 -11 -11 -12 -12 -13 -11 -12
-23 -23 -22 -23 -23 -21 -20 -20 -15 -10 -10 -12 -13 -14 -10 -11 -10 -11 -11 -10 -10 -10 -10 -10 -9 -9 -10 -10 -12 -12 -11 -11 -11 -10 -10 -11 -11 -11 -11 -11 -11 -11 -12 -11 -12
-24 -24 -24 -24 -25 -24 -23 -22 -15 -12 -12 -13 -14 -15 -15 -13 -12 -11 -11 -10 -10 -10 -10 -10 -9 -11 -10 -11 -12 -12 -10 -10 -11 -12 -12 -11 -11 -12 -12 -11 -11 -11 -12 -11 -12
-24 -23 -23 -23 -24 -24 -24 -23 -17 -14 -15 -15 -15 -15 -14 -14 -15 -14 -11 -10 -10 -10 -10 -10 -11 -11 -10 -12 -12 -12 -11 -10 -10 -10 -11 -11 -11 -11 -11 -11 -11 -11 -12 -12 -12
-24 -24 -24 -23 -23 -24 -23 -22 -21 -19 -18 -18 -16 -15 -14 -14 -14 -14 -12 -11 -11 -10 -10 -11 -12 -11 -12 -12 -10 -10 -12 -10 -11 -11 -12 -11 -11 -11 -11 -11 -11 -11 -11 -12 -12
-25 -25 -25 -24 -24 -24 -23 -24 -24 -22 -20 -18 -18 -15 -15 -15 -14 -14 -14 -12 -11 -11 -10 -10 -11 -12 -12 -12 -11 -10 -10 -11 -10 -10 -11 -12 -11 -12 -12 -11 -11 -11 -11 -11 -12
-25 -25 -25 -25 -25 -25 -25 -24 -23 -23 -21 -19 -18 -16 -15 -15 -13 -14 -14 -14 -12 -12 -11 -10 -12 -11 -12 -12 -12 -12 -11 -12 -11 -11 -11 -10 -10 -11 -12 -11 -11 -11 -11 -12 -12
-26 -26 -25 -25 -25 -25 -25 -25 -24 -24 -22 -20 -19 -17 -17 -15 -14 -14 -14 -14 -14 -14 -11 -12 -11 -11 -10 -12 -11 -10 -10 -10 -10 -10 -10 -10 -11 -12 -12 -11 -12 -11 -11 -12 -12
-26 -26 -26 -26 -26 -26 -26 -25 -25 -25 -23 -23 -21 -18 -17 -16 -15 -14 -15 -14 -14 -14 -14 -13 -12 -11 -11 -12 -12 -11 -10 -10 -10 -9 -10 -10 -10 -12 -12 -12 -12 -12 -12 -12 -12
-26 -26 -27 -27 -26 -26 -26 -26 -25 -25 -25 -23 -23 -20 -17 -16 -16 -14 -14 -14 -13 -14 -14 -14 -12 -12 -12 -11 -12 -12 -11 -10 -10 -10 -10 -10 -10 -11 -12 -12 -13 -13 -12 -12 -12
-26 -27 -27 -27 -26 -26 -26 -26 -25 -25 -25 -24 -22 -20 -18 -16 -16 -16 -15 -14 -13 -14 -14 -15 -12 -13 -12 -11 -12 -12 -12 -11 -9 -10 -10 -9 -9 -11 -12 -13 -13 -13 -12 -12 -12
Height
5813 5814 5815 5816 5818 5821 5824 5829 5831 5834 5836 5840 5843 5845 5847 5847 5849 5852 5857 5858 5856 5856 5856 5857 5859 5860 5859 5862 5863 5861 5859 5861 5863 5863 5863 5860 5857 5854 5850 5844 5842 5835 5833 5833 5831
5806 5806 5807 5808 5810 5812 5816 5819 5821 5825 5828 5831 5834 5837 5840 5840 5841 5844 5849 5848 5850 5850 5852 5851 5853 5852 5854 5856 5857 5856 5853 5856 5856 5856 5854 5853 5851 5850 5847 5842 5836 5831 5825 5826 5827
5799 5799 5799 5800 5801 5801 5802 5806 5810 5814 5818 5821 5824 5828 5831 5833 5835 5838 5842 5843 5845 5845 5844 5844 5845 5845 5847 5848 5852 5850 5845 5847 5849 5849 5847 5847 5846 5844 5840 5837 5835 5830 5826 5818 5821
5791 5791 5792 5793 5792 5792 5793 5795 5799 5803 5806 5811 5816 5819 5821 5823 5825 5828 5836 5837 5837 5837 5837 5838 5837 5837 5839 5843 5845 5839 5840 5841 5841 5841 5842 5841 5840 5836 5834 5831 5829 5824 5824 5819 5817
5784 5783 5784 5784 5784 5785 5785 5786 5787 5790 5794 5800 5804 5807 5810 5809 5818 5819 5823 5827 5829 5830 5831 5830 5827 5830 5830 5835 5834 5833 5835 5836 5835 5835 5836 5835 5832 5831 5829 5827 5824 5819 5819 5816 5812
5775 5774 5775 5776 5777 5777 5778 5779 5779 5781 5784 5788 5791 5794 5796 5794 5815 5812 5811 5813 5817 5822 5821 5819 5819 5823 5823 5826 5828 5829 5829 5829 5829 5829 5829 5827 5826 5825 5824 5821 5818 5816 5814 5811 5808
5765 5766 5766 5767 5768 5768 5769 5770 5771 5773 5776 5777 5778 5780 5780 5792 5802 5800 5800 5804 5809 5813 5812 5812 5813 5815 5819 5818 5821 5822 5821 5822 5822 5824 5823 5822 5821 5821 5821 5815 5813 5810 5808 5807 5804
5758 5756 5756 5756 5756 5757 5760 5761 5761 5762 5765 5767 5769 5769 5770 5785 5786 5789 5795 5798 5800 5802 5806 5806 5807 5809 5810 5812 5812 5813 5815 5814 5819 5820 5819 5817 5815 5817 5815 5812 5809 5806 5805 5802 5798
5746 5746 5746 5746 5746 5746 5747 5749 5751 5753 5756 5757 5761 5761 5765 5776 5777 5786 5786 5791 5791 5795 5797 5800 5800 5802 5805 5805 5807 5807 5808 5811 5815 5815 5815 5816 5810 5809 5811 5810 5806 5802 5800 5797 5792
5731 5731 5732 5732 5734 5735 5735 5736 5736 5740 5743 5746 5750 5753 5762 5767 5770 5774 5778 5782 5784 5787 5789 5791 5793 5794 5797 5798 5804 5806 5805 5809 5810 5813 5815 5811 5808 5807 5805 5805 5802 5801 5796 5792 5789
5714 5713 5714 5716 5718 5720 5723 5724 5725 5726 5727 5735 5741 5744 5749 5754 5762 5766 5767 5770 5774 5775 5779 5783 5784 5786 5794 5798 5800 5801 5802 5806 5811 5815 5807 5807 5805 5805 5803 5799 5799 5795 5793 5789 5783
5695 5695 5696 5697 5700 5703 5705 5708 5707 5712 5716 5724 5728 5732 5742 5741 5751 5756 5758 5761 5763 5766 5772 5774 5775 5786 5790 5791 5794 5795 5797 5800 5805 5808 5808 5805 5803 5801 5800 5795 5792 5789 5787 5784 5779
5672 5672 5674 5676 5680 5685 5689 5692 5692 5696 5699 5711 5720 5723 5735 5732 5740 5744 5746 5750 5753 5756 5761 5767 5778 5780 5782 5784 5787 5789 5791 5795 5799 5801 5801 5799 5796 5795 5792 5792 5789 5786 5783 5779 5775
5642 5645 5647 5651 5658 5660 5668 5673 5675 5678 5683 5698 5710 5715 5721 5727 5729 5738 5738 5742 5744 5750 5755 5760 5770 5770 5774 5776 5782 5783 5788 5791 5795 5794 5793 5795 5791 5791 5790 5787 5786 5781 5778 5776 5772
5610 5614 5618 5622 5627 5634 5645 5652 5659 5666 5671 5691 5698 5706 5713 5716 5727 5729 5734 5734 5740 5744 5748 5756 5759 5762 5766 5772 5777 5780 5787 5791 5790 5787 5786 5787 5786 5787 5786 5785 5786 5777 5774 5772 5769
5585 5585 5590 5594 5600 5605 5617 5626 5634 5644 5659 5675 5682 5689 5697 5708 5715 5719 5722 5727 5734 5736 5742 5748 5753 5756 5764 5770 5772 5779 5782 5784 5783 5783 5781 5784 5782 5783 5783 5785 5779 5774 5770 5768 5765
5567 5566 5568 5572 5578 5581 5589 5595 5607 5621 5664 5666 5671 5672 5686 5694 5704 5705 5712 5716 5722 5727 5734 5739 5745 5751 5756 5763 5770 5771 5776 5776 5776 5776 5779 5780 5778 5777 5780 5779 5775 5772 5768 5764 5763
5551 5550 5550 5554 5557 5562 5567 5570 5582 5630 5645 5658 5671 5665 5667 5680 5689 5697 5698 5709 5715 5722 5729 5733 5737 5743 5749 5754 5762 5765 5767 5770 5771 5773 5775 5777 5776 5779 5774 5774 5772 5768 5765 5763 5761
5540 5539 5541 5542 5543 5546 5550 5550 5573 5607 5629 5644 5652 5649 5659 5664 5675 5681 5690 5698 5708 5716 5721 5726 5732 5739 5744 5751 5757 5759 5759 5768 5768 5772 5774 5776 5775 5771 5769 5769 5766 5763 5761 5761 5758
5530 5528 5527 5528 5530 5533 5535 5539 5560 5584 5606 5604 5627 5635 5640 5657 5663 5664 5677 5686 5697 5706 5716 5722 5728 5733 5740 5747 5749 5752 5759 5760 5761 5764 5766 5769 5772 5775 5768 5767 5763 5761 5760 5758 5756
5519 5519 5518 5518 5520 5522 5524 5537 5551 5562 5578 5586 5603 5610 5621 5632 5647 5659 5663 5680 5687 5698 5706 5716 5721 5728 5737 5732 5738 5745 5748 5751 5758 5759 5762 5765 5767 5768 5764 5763 5761 5761 5758 5756 5754
5512 5513 5513 5512 5515 5515 5520 5527 5530 5537 5549 5562 5571 5585 5604 5616 5622 5632 5653 5664 5678 5688 5692 5705 5711 5717 5723 5730 5735 5740 5745 5747 5750 5756 5758 5763 5767 5761 5759 5761 5760 5757 5755 5754 5753
5508 5510 5510 5512 5511 5511 5514 5516 5520 5526 5536 5550 5555 5569 5583 5593 5614 5625 5640 5658 5667 5673 5681 5696 5699 5708 5719 5726 5727 5730 5736 5742 5746 5749 5751 5756 5761 5758 5756 5758 5757 5752 5751 5752 5752
5505 5505 5506 5505 5505 5505 5507 5509 5512 5516 5525 5529 5540 5552 5566 5585 5600 5618 5630 5647 5659 5665 5674 5683 5693 5696 5705 5714 5719 5723 5729 5735 5739 5741 5746 5751 5758 5759 5750 5754 5754 5749 5747 5750 5750
5503 5503 5502 5500 5498 5498 5499 5503 5505 5510 5515 5523 5528 5541 5557 5576 5587 5604 5609 5620 5635 5658 5667 5670 5680 5690 5701 5711 5715 5717 5723 5728 5731 5736 5740 5748 5750 5754 5750 5750 5751 5747 5744 5747 5748
5500 5500 5499 5497 5493 5494 5494 5498 5502 5504 5507 5511 5519 5532 5545 5562 5571 5581 5594 5609 5626 5640 5657 5661 5672 5683 5691 5701 5709 5710 5714 5720 5726 5730 5734 5740 5744 5748 5751 5747 5748 5745 5744 5745 5745
5497 5497 5496 5495 5491 5494 5494 5494 5496 5499 5505 5508 5516 5525 5531 5550 5555 5565 5575 5593 5607 5622 5631 5645 5659 5670 5679 5691 5700 5701 5706 5712 5720 5724 5728 5733 5740 5742 5746 5747 5749 5743 5743 5743 5744
Wind_Speed
38 39 45 47 60 60 60 64 62 62 52 50 49 48 48 49 49 51 44 41 41 40 40 40 39 33 33 32 24 24 28 27 30 24 23 20 19 28 33 37 37 40 40 37 32
37 43 40 44 51 60 67 69 66 65 62 56 48 51 52 48 47 47 44 41 34 35 36 42 41 39 39 36 27 31 37 34 32 24 32 33 33 31 31 28 30 34 49 44 37
32 32 33 36 43 50 57 60 63 59 54 52 54 54 52 49 50 47 41 40 39 42 45 49 48 48 35 35 33 37 43 37 33 31 36 34 32 30 27 34 35 39 43 47 36
29 26 27 30 36 40 48 54 63 69 64 62 59 57 58 58 58 53 50 44 46 50 50 53 54 53 54 49 44 47 44 40 37 36 34 31 28 28 32 32 35 40 37 39 41
30 28 26 30 29 31 39 45 48 56 65 61 63 66 66 70 65 59 57 55 53 54 50 53 57 56 59 51 37 40 40 39 40 37 31 27 25 30 32 31 31 41 38 36 30
33 34 34 34 34 33 33 33 38 46 51 63 66 68 69 63 56 60 63 57 67 53 49 46 44 46 49 43 42 44 38 38 39 29 23 25 28 33 25 32 36 33 31 23 25
42 41 42 40 40 39 39 39 38 31 34 41 52 58 57 47 50 59 65 53 32 31 36 25 28 37 37 39 42 38 36 37 34 27 23 24 32 29 24 31 30 34 30 24 28
42 42 43 45 45 44 43 44 44 42 41 45 44 46 44 40 43 43 29 26 29 33 30 30 29 32 36 37 32 33 34 33 21 22 24 30 35 33 25 25 33 35 30 31 30
48 48 48 47 46 48 48 47 47 47 47 47 44 46 34 33 37 32 40 35 35 34 32 29 31 31 31 30 26 28 28 26 20 19 23 28 38 36 27 24 29 33 32 35 37
51 52 52 52 51 51 50 49 51 50 50 49 47 45 39 37 39 39 39 37 37 37 35 31 30 30 28 30 19 19 20 19 17 12 21 33 32 32 36 25 29 31 36 37 30
58 57 56 56 56 55 54 53 52 51 52 52 51 47 46 43 39 41 43 44 40 40 36 35 35 33 25 16 15 18 16 18 15 16 22 22 26 35 36 31 26 25 35 31 33
66 65 63 62 59 59 60 58 59 57 53 47 46 46 40 46 40 40 44 44 41 41 40 38 40 30 25 26 25 25 22 22 22 23 28 28 30 35 31 20 19 22 22 25 30
75 75 73 69 67 64 62 63 63 62 61 53 46 44 34 41 31 34 38 37 37 38 42 40 30 29 29 30 30 31 26 23 21 23 24 24 30 25 18 22 25 24 25 22 22
79 80 80 79 76 72 68 67 68 69 67 59 53 47 42 39 36 30 36 36 37 33 36 36 32 33 31 34 29 28 19 17 24 25 26 19 25 23 21 18 24 31 27 20 19
76 80 81 82 81 80 76 73 71 70 68 62 56 53 49 47 35 35 34 36 33 30 33 23 30 33 31 30 27 24 18 21 29 25 27 28 29 16 13 13 20 32 38 22 18
56 59 64 71 81 83 81 78 77 74 69 63 59 59 56 50 44 40 40 40 32 34 33 30 28 30 27 24 25 23 22 30 27 23 29 21 18 11 6 15 23 33 30 22 20
54 54 56 54 55 67 78 75 73 80 63 63 59 66 59 53 49 49 46 45 42 41 35 35 33 28 28 31 27 26 33 30 27 28 25 14 17 17 16 24 29 24 18 21 18
35 34 39 42 44 51 56 59 78 75 69 57 46 46 61 63 54 48 53 47 46 41 36 36 37 34 29 29 30 34 32 29 28 23 11 15 15 20 23 25 22 18 14 18 16
34 35 30 31 33 38 48 55 76 75 68 65 38 38 41 51 61 54 53 53 48 45 42 38 34 27 31 31 33 34 31 22 24 17 18 15 15 19 29 24 28 22 15 15 16
36 33 32 30 33 36 45 51 61 68 59 64 61 45 40 32 37 50 55 56 51 48 43 39 32 31 24 30 35 32 26 29 26 25 24 20 16 18 28 28 20 22 20 16 15
30 23 20 24 29 35 38 35 37 48 58 53 67 65 51 43 36 43 54 51 49 46 47 42 33 31 31 42 36 33 36 36 26 22 18 16 11 16 28 24 29 30 18 13 14
18 12 14 14 17 31 31 25 35 48 59 62 67 78 63 52 48 53 44 55 54 46 49 46 46 37 40 36 36 28 31 34 28 23 23 18 12 25 23 24 29 26 16 15 14
11 9 12 13 21 21 23 30 32 40 56 67 68 77 71 61 52 51 46 38 48 48 50 45 51 46 34 34 44 38 35 33 31 30 26 23 18 24 29 27 20 27 18 12 11
13 9 10 18 24 27 24 25 24 33 50 74 65 67 76 74 62 50 48 41 35 40 51 46 48 52 49 43 43 39 37 35 34 35 32 26 15 19 33 23 24 23 13 10 11
8 8 7 16 23 26 31 26 24 21 33 65 57 68 63 77 75 59 53 53 48 40 42 42 51 48 42 39 40 41 39 35 37 34 32 21 23 21 24 22 19 22 23 16 9
7 8 13 15 17 10 13 29 27 17 23 62 50 62 63 75 72 71 63 54 52 47 49 46 51 47 42 41 38 39 40 35 33 34 35 28 27 20 22 19 15 27 25 18 11
10 9 9 13 11 8 10 14 29 27 24 37 61 62 66 78 63 74 69 61 61 58 51 44 50 52 49 42 37 40 41 40 35 34 34 31 27 25 17 19 21 29 23 23 10
Wind_Direction
257 253 246 244 246 247 249 247 251 250 242 243 246 249 247 249 253 253 253 259 264 266 269 271 277 279 282 287 275 277 289 297 304 303 277 289 275 275 289 295 297 297 301 298 303
257 249 252 252 243 243 246 250 252 246 250 240 242 247 248 245 247 245 248 247 250 260 271 278 278 282 281 287 274 283 288 296 297 291 275 273 280 286 293 289 302 300 301 307 309
254 249 249 254 252 252 249 246 244 236 240 245 244 247 244 243 239 245 240 244 254 261 266 272 275 279 282 274 284 282 287 295 295 287 282 285 290 302 296 291 282 288 294 302 311
243 246 247 250 251 251 246 246 246 241 242 241 243 240 241 242 245 249 245 255 260 259 263 270 272 274 274 280 277 280 285 292 297 296 290 286 293 306 302 295 292 291 300 299 311
248 244 253 253 250 250 248 244 242 243 243 236 239 244 243 244 251 250 253 255 253 260 266 270 268 268 266 278 279 277 282 285 280 294 285 287 303 295 300 298 287 296 305 309 310
260 255 257 255 249 245 249 247 248 247 243 243 245 244 250 252 255 254 256 261 253 264 264 262 264 259 265 266 273 277 274 274 283 281 292 293 293 297 307 300 295 308 300 310 318
266 265 266 261 259 252 246 243 243 252 250 247 249 252 248 248 250 252 258 263 247 259 268 262 259 257 264 269 268 265 266 271 276 289 290 293 288 303 301 284 293 304 318 306 309
258 261 263 262 263 260 256 252 247 246 244 247 250 251 255 244 241 248 244 244 252 262 259 255 254 254 256 261 257 256 263 269 282 282 302 296 296 298 306 279 289 298 308 311 311
265 262 259 257 257 259 258 253 251 250 248 246 248 250 257 230 238 247 248 246 252 256 256 249 252 253 250 253 257 256 263 272 284 291 313 269 286 296 307 281 292 294 311 309 299
267 264 261 259 257 254 255 256 254 249 249 249 249 248 256 246 238 241 248 250 251 250 251 249 251 255 250 254 289 282 280 276 302 305 271 265 277 302 301 299 284 293 304 304 310
269 266 262 258 256 255 253 251 252 252 249 248 249 247 251 244 237 236 242 245 243 246 246 246 248 252 265 278 249 257 252 255 270 276 278 277 294 290 291 300 294 281 274 290 302
268 264 263 260 256 253 252 251 251 252 251 248 246 247 244 253 242 240 242 245 246 249 245 241 248 256 259 249 246 250 257 246 245 248 253 255 271 271 290 300 298 290 287 292 299
265 263 261 258 255 253 250 250 250 250 250 246 244 245 237 248 239 228 236 240 244 245 241 246 255 250 248 248 252 259 260 249 254 259 258 263 274 290 316 299 289 288 304 300 311
263 259 258 255 254 251 247 245 245 247 248 245 241 239 242 240 245 230 234 236 238 240 238 242 241 240 238 245 250 255 253 260 255 250 257 255 272 273 288 308 314 298 312 313 307
268 260 255 252 251 247 245 244 244 244 246 244 243 243 240 240 248 236 237 236 238 239 233 237 235 235 236 238 243 243 231 244 258 265 267 268 271 287 292 330 285 277 297 314 318
273 268 262 255 251 247 242 240 239 237 239 242 244 241 239 238 237 237 227 232 229 234 234 230 230 229 232 233 241 228 234 236 244 253 264 276 288 287 317 277 265 278 299 319 320
279 271 265 260 255 251 246 245 238 234 237 238 241 246 241 239 235 236 231 230 227 227 230 224 227 224 217 220 232 219 221 235 250 256 270 287 302 313 282 260 270 305 291 309 311
285 281 265 259 255 249 247 244 238 233 231 234 233 246 246 242 234 233 238 230 228 229 234 233 224 226 219 218 216 224 234 237 248 265 300 326 262 275 290 305 312 313 289 303 311
284 284 277 262 256 247 241 241 236 229 225 226 201 207 257 253 242 237 236 236 234 233 229 233 231 228 222 225 212 228 238 251 236 239 241 244 297 299 303 308 311 336 320 298 303
290 287 276 262 252 249 239 241 235 228 221 212 199 202 203 238 233 239 232 233 231 231 228 232 233 220 222 214 224 221 243 237 235 241 241 242 245 267 282 287 293 305 313 311 306
300 292 276 260 253 247 252 256 241 223 203 195 196 201 196 195 217 228 233 229 231 228 226 223 223 223 212 216 226 221 216 238 241 244 245 275 299 249 266 279 294 305 298 318 316
303 293 283 272 257 249 252 248 234 222 197 192 192 202 194 193 200 200 229 226 227 223 225 220 220 206 217 223 235 237 228 232 245 241 241 224 258 255 256 275 288 306 289 296 306
311 280 273 247 270 268 251 245 237 226 199 193 195 200 192 188 195 196 198 226 218 225 220 213 211 215 210 214 230 228 220 219 236 243 245 241 234 264 276 282 300 306 302 300 310
317 316 283 267 254 250 244 242 242 230 205 199 196 191 198 196 193 191 192 193 223 207 218 217 214 220 222 213 225 235 226 233 239 245 249 248 226 249 257 277 302 308 315 295 299
312 317 288 276 262 258 246 233 225 235 216 207 201 194 189 195 196 191 191 193 192 208 223 222 209 220 222 210 223 235 238 232 240 250 249 255 242 231 275 289 297 299 312 322 296
297 307 304 320 255 251 244 236 223 203 223 206 209 193 188 185 193 190 187 189 185 181 222 221 211 214 218 214 217 229 241 230 233 242 250 247 250 239 229 272 290 282 285 309 304
290 275 327 325 324 253 274 254 220 225 215 214 209 196 190 187 190 191 187 185 183 185 196 208 208 204 211 211 200 222 225 233 229 234 245 250 249 235 221 230 235 254 272 272 288